Vertical_Velocity
-2 -3 -2 -1 0 -1 -1 -1 -0 -0 -0 -0 -0 -1 -2 -1 -1 0 0 -0 0 2 -0 -1 0 3 -0 1 -0 -0 0 1 -2 0 -3 1 2 -3 0 1 -2 -3 -1
-6 -0 -1 -2 2 1 1 1 -3 -1 -1 -0 0 -1 -0 -1 0 0 0 1 1 1 -1 0 1 -1 -1 -2 -0 2 2 0 1 2 -1 -2 -1 -1 -1 1 -2 -2 0
1 -1 -2 -2 1 -0 2 -0 0 -1 -2 -2 0 -0 -1 0 -1 -0 0 5 3 1 1 0 4 -0 -1 -0 -3 -2 0 0 2 -0 -2 -2 -1 -1 -2 -0 -2 0 -2
3 -3 -2 0 1 1 1 2 1 -0 1 -1 1 -1 2 2 1 -1 1 0 3 0 2 0 -0 -0 -0 0 0 -1 -1 -2 1 -3 1 2 -2 1 1 -1 -0 -1 -2
2 1 -2 -1 -1 1 3 2 -1 -1 0 -0 2 2 1 1 3 2 0 7 1 -0 -1 -1 -1 0 0 -0 -0 0 -2 -0 -0 0 4 1 -1 0 1 -0 1 -1 -1
-1 4 -2 -1 1 -1 -1 -2 1 -0 -1 1 1 2 2 3 -1 0 2 4 1 -0 0 -1 1 0 0 0 1 -1 1 1 -1 -1 -1 -1 -2 2 -0 -0 1 0 -2
-2 4 -0 -1 -0 1 -0 -0 -0 1 -0 1 -1 -1 2 0 -1 -0 1 1 1 -1 0 -1 0 2 -0 1 -1 -0 -1 -2 1 -1 0 5 -1 -2 -2 0 -1 -2 1
2 4 1 2 2 2 -2 -3 2 1 1 -1 -0 -2 3 2 3 2 4 -0 0 -1 1 1 0 0 -0 2 1 1 1 -2 2 2 3 3 3 -1 1 -2 -2 -1 2
4 2 2 2 3 3 -0 -0 1 0 1 1 2 -2 5 9 3 3 4 6 2 -0 1 -1 -1 0 -0 -2 -2 1 1 -3 0 -2 1 3 2 -0 -0 0 -2 -0 1
2 4 1 2 1 4 1 2 2 2 2 1 -2 -0 0 -2 1 -1 3 1 0 1 -3 -0 -3 -4 -2 0 -1 0 -1 -1 -0 1 2 3 3 -1 -2 -0 -2 1 -3
2 4 -0 -0 0 1 1 6 4 4 2 3 3 2 2 1 4 4 5 2 0 -0 0 2 1 -1 1 -8 -3 1 2 -3 -1 -5 2 13 2 0 -2 1 -0 4 -5
0 -3 -1 1 1 2 1 2 4 -0 5 -1 1 0 -4 -6 -4 -4 -1 1 -1 3 2 2 2 1 1 2 -7 2 -5 1 2 -5 -5 -4 5 0 -1 -0 1 1 -1
2 3 1 -3 1 -2 1 4 1 4 0 2 -0 4 10 3 -1 4 2 3 3 5 1 1 1 0 -0 -0 -3 -1 -3 -5 -1 5 -4 -6 -4 0 -1 2 3 -0 -0
-2 3 5 3 -2 1 1 1 0 1 -2 -4 -1 -1 -2 -0 -0 -2 0 -0 2 -0 0 2 0 -3 0 -1 -1 3 1 1 -0 -15 1 1 7 -0 1 0 1 2 1
-2 -2 3 2 -1 1 3 1 -0 -1 1 4 -1 -1 -0 0 -1 -1 0 0 1 -2 1 -1 1 -1 -2 2 1 3 1 -3 -3 2 -2 1 -5 -13 0 4 2 1 1
9 2 3 1 -4 0 -0 -1 -2 2 -0 3 0 -1 -1 1 2 -2 -1 -1 -1 -2 2 -1 1 1 1 0 -0 -4 -1 -0 -3 0 1 -0 9 1 1 7 3 3 1
-2 2 6 -1 -2 -3 -0 0 1 -1 0 1 1 1 -0 0 -1 -0 -0 -2 -1 -2 -1 0 -1 0 0 -1 -3 0 -0 -3 1 4 -5 -0 1 1 2 11 4 4 2
11 -3 -1 1 -1 1 0 -3 -1 0 1 2 -2 2 1 2 2 -1 -2 -1 -1 0 1 1 1 -4 1 3 0 -1 1 -1 0 -2 2 0 5 -3 -1 39 -2 5 5
-1 3 8 -1 -5 -1 6 1 -1 -1 0 -2 1 -2 0 3 1 2 -1 -1 -2 -2 -0 0 -0 4 -0 -1 -1 -1 1 1 3 -2 -3 1 -0 -3 1 13 20 26 7
8 1 13 4 11 -2 7 3 7 5 4 2 -1 -0 -1 2 0 -0 -2 -0 0 -1 -1 -1 1 -1 1 -0 -0 -1 -1 -0 1 -2 3 3 -3 1 -1 2 2 -5 11
11 4 6 -1 2 -9 -4 -3 3 -3 0 1 0 2 1 0 -0 -1 0 -2 -0 1 2 1 -1 2 -1 1 -1 1 1 2 2 1 1 0 -1 -1 1 4 0 1 -1
-1 2 16 0 -0 -3 -0 1 6 -0 4 5 5 2 2 1 1 -0 1 -0 0 -3 -2 -0 1 -5 1 -2 -2 2 -2 1 1 0 -1 -1 -0 0 1 1 0 2 0
-0 -6 9 -5 3 -5 13 -5 2 8 12 9 5 -1 -2 0 2 1 0 -1 -1 0 0 1 -1 2 -2 -2 -3 -4 -5 0 -2 0 1 1 -0 -2 -1 0 -0 2 -0
-4 3 -1 2 4 9 -4 -0 -4 -10 -5 -10 -1 1 0 1 1 2 2 0 1 1 -1 2 2 -0 1 1 -0 -0 1 -1 -6 -2 -0 -0 1 1 0 -0 -1 -1 -1
1 -3 -2 3 9 1 6 -4 -0 -1 0 1 1 2 -2 -1 0 2 -0 1 -0 -1 1 1 -2 1 1 3 1 -1 2 1 1 -3 -1 -2 1 2 0 -0 1 1 -0
5 5 1 -0 -4 0 4 -2 2 1 -7 -6 -2 -4 -5 2 -2 1 2 3 3 2 -0 0 1 1 2 2 3 -0 1 1 -3 -3 -2 -0 0 0 1 0 -0 0 0
Height
1517 1520 1524 1527 1531 1534 1537 1539 1541 1542 1545 1546 1548 1549 1551 1553 1554 1555 1556 1557 1558 1558 1559 1559 1561 1561 1563 1564 1564 1566 1567 1567 1568 1568 1568 1569 1569 1569 1570 1570 1570 1570 1571
1515 1520 1523 1527 1531 1534 1537 1539 1541 1544 1546 1547 1549 1550 1552 1554 1556 1557 1558 1559 1560 1561 1561 1562 1563 1564 1566 1566 1568 1569 1569 1571 1571 1571 1571 1573 1573 1573 1574 1574 1574 1574 1574
1515 1519 1523 1527 1531 1534 1537 1539 1542 1544 1546 1548 1550 1552 1554 1556 1557 1559 1560 1562 1562 1563 1564 1565 1566 1567 1568 1570 1571 1572 1573 1574 1574 1575 1576 1576 1576 1577 1577 1577 1577 1578 1577
1514 1518 1522 1527 1530 1534 1537 1540 1542 1544 1547 1549 1551 1553 1555 1557 1558 1560 1562 1563 1564 1565 1566 1567 1569 1569 1571 1572 1574 1575 1576 1577 1578 1578 1580 1580 1579 1580 1580 1580 1580 1580 1581
1514 1518 1522 1526 1531 1534 1537 1540 1542 1545 1548 1550 1552 1554 1556 1558 1560 1561 1563 1565 1566 1567 1569 1570 1571 1573 1574 1575 1577 1578 1579 1580 1580 1583 1584 1584 1582 1582 1582 1582 1583 1584 1583
1515 1518 1521 1526 1530 1534 1538 1541 1543 1546 1548 1551 1553 1556 1559 1560 1562 1564 1565 1567 1568 1569 1571 1572 1574 1575 1577 1578 1579 1580 1581 1582 1584 1585 1585 1584 1584 1584 1585 1584 1586 1587 1587
1513 1517 1521 1526 1531 1534 1538 1541 1544 1546 1549 1551 1554 1557 1559 1561 1563 1565 1568 1569 1570 1572 1573 1575 1577 1578 1579 1580 1581 1582 1584 1585 1587 1588 1589 1588 1588 1588 1588 1587 1588 1590 1591
1512 1517 1521 1526 1531 1534 1538 1542 1545 1547 1549 1551 1554 1557 1560 1563 1564 1567 1569 1571 1573 1575 1576 1577 1579 1580 1581 1583 1584 1585 1586 1588 1589 1591 1590 1591 1591 1591 1591 1590 1591 1593 1594
1513 1518 1521 1526 1531 1535 1538 1541 1545 1547 1550 1552 1555 1558 1561 1564 1565 1569 1571 1574 1575 1577 1579 1579 1580 1583 1585 1586 1588 1588 1589 1589 1591 1592 1593 1594 1595 1594 1594 1593 1594 1596 1596
1512 1517 1521 1526 1531 1535 1539 1542 1545 1547 1550 1552 1555 1558 1562 1565 1568 1570 1573 1575 1578 1579 1580 1582 1583 1585 1587 1588 1590 1592 1592 1592 1592 1594 1596 1597 1597 1597 1597 1597 1597 1598 1599
1512 1516 1520 1525 1530 1535 1538 1542 1545 1548 1550 1552 1555 1559 1563 1566 1569 1572 1574 1575 1578 1580 1582 1584 1585 1587 1589 1590 1592 1594 1596 1594 1594 1595 1598 1601 1601 1600 1600 1600 1600 1601 1600
1508 1512 1517 1523 1528 1532 1536 1540 1544 1547 1550 1552 1556 1558 1561 1564 1568 1570 1573 1576 1579 1582 1584 1586 1588 1589 1590 1591 1593 1595 1597 1599 1598 1598 1599 1602 1603 1602 1603 1603 1603 1603 1604
1502 1509 1513 1519 1525 1529 1534 1538 1542 1546 1548 1552 1554 1557 1561 1565 1569 1573 1575 1578 1581 1584 1585 1587 1589 1590 1591 1593 1595 1597 1598 1601 1602 1602 1602 1604 1604 1604 1605 1606 1605 1605 1606
1502 1505 1511 1516 1521 1527 1531 1536 1539 1543 1546 1549 1553 1558 1562 1565 1569 1573 1575 1579 1582 1584 1586 1589 1590 1591 1593 1594 1596 1598 1599 1600 1602 1603 1604 1606 1606 1606 1607 1606 1607 1608 1608
1497 1503 1509 1513 1519 1525 1530 1534 1537 1541 1544 1549 1554 1558 1561 1565 1568 1572 1576 1579 1582 1585 1587 1590 1591 1593 1595 1597 1598 1600 1602 1602 1605 1606 1606 1607 1606 1605 1606 1607 1608 1609 1610
1495 1499 1505 1510 1516 1523 1527 1532 1536 1540 1544 1548 1553 1557 1561 1565 1569 1572 1576 1580 1583 1586 1588 1591 1593 1595 1597 1599 1600 1603 1604 1604 1607 1608 1607 1607 1608 1608 1608 1608 1609 1610 1610
1491 1497 1501 1507 1512 1519 1526 1530 1534 1539 1544 1548 1552 1556 1561 1566 1570 1573 1576 1579 1583 1586 1589 1591 1594 1597 1598 1600 1603 1605 1606 1607 1608 1609 1609 1609 1610 1609 1608 1608 1610 1611 1612
1487 1493 1497 1503 1509 1516 1523 1527 1533 1538 1543 1548 1551 1555 1561 1565 1569 1572 1576 1579 1582 1586 1590 1592 1595 1597 1600 1602 1604 1606 1608 1609 1611 1611 1612 1612 1612 1610 1610 1605 1609 1612 1614
1483 1487 1493 1499 1506 1513 1520 1526 1532 1537 1542 1547 1551 1555 1560 1563 1568 1572 1575 1579 1582 1586 1589 1592 1595 1599 1600 1603 1605 1608 1610 1611 1612 1613 1614 1614 1616 1614 1614 1614 1613 1614 1617
1479 1486 1489 1496 1501 1510 1518 1525 1530 1535 1541 1546 1550 1554 1559 1562 1567 1570 1574 1579 1582 1585 1589 1592 1596 1598 1601 1603 1605 1608 1610 1612 1614 1615 1616 1616 1619 1618 1620 1619 1618 1618 1619
1476 1481 1484 1490 1497 1504 1512 1520 1526 1531 1537 1543 1548 1553 1557 1562 1565 1570 1573 1578 1582 1585 1589 1592 1595 1598 1600 1603 1605 1609 1611 1614 1615 1615 1616 1618 1620 1621 1622 1621 1621 1622 1622
1471 1478 1480 1487 1493 1501 1510 1516 1523 1529 1535 1540 1545 1550 1555 1560 1564 1568 1572 1576 1580 1583 1587 1590 1594 1595 1599 1601 1604 1608 1612 1616 1616 1617 1618 1619 1620 1621 1622 1622 1622 1622 1623
1467 1473 1475 1483 1490 1498 1506 1511 1519 1526 1531 1536 1542 1548 1552 1557 1562 1566 1570 1574 1578 1582 1585 1589 1592 1595 1597 1600 1602 1606 1610 1613 1615 1617 1618 1618 1620 1621 1622 1622 1623 1623 1623
1462 1469 1475 1480 1486 1493 1499 1507 1515 1520 1526 1532 1538 1543 1548 1553 1558 1563 1568 1572 1576 1580 1583 1587 1590 1593 1597 1598 1601 1603 1605 1607 1610 1615 1617 1618 1619 1620 1621 1621 1622 1623 1624
1459 1465 1471 1477 1483 1489 1496 1503 1510 1517 1525 1528 1533 1539 1544 1550 1554 1559 1563 1568 1572 1576 1580 1584 1588 1591 1594 1598 1600 1602 1603 1605 1607 1608 1611 1615 1617 1618 1619 1620 1621 1622 1623
1456 1461 1466 1472 1478 1486 1492 1498 1504 1510 1517 1524 1529 1534 1540 1544 1550 1554 1559 1564 1568 1572 1577 1581 1586 1589 1592 1596 1598 1600 1602 1603 1604 1606 1608 1611 1614 1615 1616 1618 1619 1620 1621